Tracking 25710 objects as of 5-Jul-2022
HD Live streaming from Space Station
objects crossing your sky now

FENGYUN 1C DEB

Track FENGYUN 1C DEB now!
10-day predictions


NORAD ID: 31887
Int'l Code: 1999-025CKN
Perigee: 753.0 km
Apogee: 804.8 km
Inclination: 99.5 °
Period: 100.3 minutes
Semi major axis: 7149 km
RCS: 0.0075 m2 (small)
Launch date: May 10, 1999
Source: People's Republic of China (PRC)
Launch site: Taiyaun Space Center, China (TSC)

Note: This is SATELLITE DEBRIS
aabbcc
Your satellite tracking list
Your tracking list is empty




NASA's NSSDC Master Catalog

Two Line Element Set (TLE):
1 31887U 99025CKN 22185.61595530  .00001536  00000-0  54265-3 0  9994
2 31887  99.5371  68.6745 0036222  62.8529 297.6340 14.35992873785255
Source of the keplerian elements: AFSPC